Other Public Products
Issued by NWS Grand Forks, ND

Home | Current Version | Previous Version | Graphics & Text | Print | Product List | Glossary On
Versions: 1 2 3 4 5 6 7 8 9 10 11 12 13 14 15 16 17 18 19 20 21 22 23 24 25 26 27 28 29 30 31 32 33 34 35 36 37 38 39 40 41 42 43 44 45 46 47 48 49 50
000
FPUS83 KFGF 282131
OPUFGF
PRAIRIE TO PINES WEATHER ROUNDUP
NATIONAL WEATHER SERVICE EASTERN NORTH DAKOTA/GRAND FORKS ND
400 PM CDT THU APR 28 2016

 **SATELLITE DATA USED TO AUGMENT SKY COVER AT AUTOMATED STATIONS**
 *****  WEATHER ACROSS EASTERN NORTH DAKOTA  *****

CITY           SKY/WX    TMP DP  RH WIND       PRES   REMARKS
GRAND FORKS    PTSUNNY   57  25  29 NE17      30.11S
GRAND FORKS AF PTSUNNY   57  22  26 NE16G22   30.12S
GRAND CITY NWS NOT AVBL
BUXTON           N/A     57  25  29 NE12        N/A
DEVILS LAKE    CLOUDY    53  18  25 E18       30.14S
FARGO          CLOUDY    59  19  21 NE12G21   30.05S
WAHPETON ARPT  CLOUDY    54  27  35 NE7       30.06S
$$

 *****  WEATHER ACROSS CENTRAL AND WESTERN NORTH DAKOTA  *****

CITY           SKY/WX    TMP DP  RH WIND       PRES   REMARKS
JAMESTOWN      CLOUDY    55  23  28 NE21      30.07R
BISMARCK       CLOUDY    55  21  26 E14G23    30.09S
MINOT          CLOUDY    60  12  15 E15       30.13S
MINOT AFB      CLOUDY    56  15  19 E17G23    30.12F
GARRISON         N/A     57  19  22 E14G22    30.11S
WILLISTON      PTSUNNY   56  23  27 E10       30.14R
DICKINSON      CLOUDY    51  29  42 NE10      30.08S
HETTINGER      CLOUDY    46  34  62 NE6       30.10S
$$

 *****  OTHER OBSERVATIONS NORTHEAST NORTH DAKOTA  *****

CITY           SKY/WX    TMP DP  RH WIND       PRES   REMARKS
WALHALLA       FAIR      57  23  26 NE15      30.15S
LANGDON        FAIR      57  23  26 NE16      30.14F
CAVALIER       FAIR      57  25  28 E12       30.14S
GRAFTON        FAIR      55  23  28 E13       30.16S
CANDO          FAIR      57  18  21 E13G18    30.16S
FORT TOTTEN      N/A     56  20  24 NE7       29.95S
ROLLA          FAIR      55  10  16 E16G22    30.16S
RUGBY          FAIR      55  16  21 NE17G24   30.14S
 ***** THE ABOVE OBSERVATIONS ARE NON NWS ARE NOT QUALITY
        CONTROLLED AND MAY MIS-REPORT RAIN FOR SNOW...
$$

 *****  OTHER OBSERVATIONS SOUTHEAST NORTH DAKOTA *****

CITY           SKY/WX    TMP DP  RH WIND       PRES   REMARKS
COOPERSTOWN    NOT AVBL
VALLEY CITY    CLOUDY    54  23  30 NE14      30.09S
OAKES            N/A    N/A N/A N/A MISG        N/A
GWINNER        FAIR      55  30  38 NE15      30.06R
BUFFALO          N/A     55  17  22 NE15        N/A
WYNDMERE         N/A     54  27  35 NE7         N/A
 ***** THE ABOVE OBSERVATIONS ARE NON NWS ARE NOT QUALITY
       CONTROLLED AND MAY MIS-REPORT RAIN FOR SNOW...
$$

  *****  WEATHER ACROSS NORTHERN MINNESOTA  *****

CITY           SKY/WX    TMP DP  RH WIND       PRES   REMARKS
FLAG ISLAND    SUNNY     52  18  25 N14G20    30.15S
WARROAD        SUNNY     52  23  32 E8        30.16S
ROSEAU         SUNNY     54  30  40 E13G21    30.14F
HALLOCK        SUNNY     61  16  17 E14G20    30.13S
THF RVR FALLS  PTSUNNY   55  23  28 NE13      30.11F
HALSTAD          N/A     57  21  25 NE14        N/A
FOSSTON        PTSUNNY   55  25  30 NE15G21   30.09S
BAUDETTE       SUNNY     55  23  28 NE8G18    30.12F
WASKISH        MOSUNNY   55  28  35 NE14G20   30.11S
CROOKSTON      MOSUNNY   57  25  28 E16       30.11F
$$
  *****  WEATHER ACROSS CENTRAL AND WEST MINNESOTA  *****

CITY           SKY/WX    TMP DP  RH WIND       PRES   REMARKS
BEMIDJI        MOSUNNY   55  24  30 N13       30.06F
PARK RAPIDS    PTSUNNY   56  20  24 E9G22     30.05S
WADENA         PTSUNNY   55  27  33 NE10      30.03S
DETROIT LAKES  CLOUDY    54  21  28 NE12      30.06S
MOORHEAD       CLOUDY    57  19  23 E12       30.06S
FERGUS FALLS   CLOUDY    54  25  32 CALM      30.03F
ELBOW LAKE     CLOUDY    49  30  47 SE7       30.06R
MORRIS MN      RAIN      43  37  81 E9        30.06S
STAPLES        CLOUDY    55  19  24 NE8G18    30.03S
WHEATON        CLOUDY    52  34  50 E5        30.08S
$$
  *****  WEATHER ELSEWHERE ACROSS MINNESOTA  *****

CITY           SKY/WX    TMP DP  RH WIND       PRES   REMARKS
DULUTH         PTSUNNY   44  23  43 E17       30.09F
INTRNTL FALLS  SUNNY     54  26  34 N10G17    30.11F
ELY            CLOUDY    52  25  35 NE8G17    30.09R
CLOQUET        CLOUDY    46  16  29 E15G23    30.08S
BRAINERD       CLOUDY    53  19  26 NE9       30.04R
HIBBING        MOSUNNY   53  23  31 CALM      30.06F
ALEXANDRIA     CLOUDY    45  35  68 SE13      30.06R
SAINT CLOUD    LGT RAIN  43  33  68 N7        30.05S
MINNEAPOLIS    LGT RAIN  41  35  79 NE20      30.04R
$$

  *****  WEATHER ACROSS SOUTH DAKOTA  *****

CITY           SKY/WX    TMP DP  RH WIND       PRES   REMARKS
SIOUX FALLS    CLOUDY    42  36  79 N9        30.02R
BROOKINGS      CLOUDY    39  34  82 NE16      30.01S
WATERTOWN      LGT SNOW  35  32  88 N7        30.04S FOG
HURON          CLOUDY    43  37  79 NE13      30.04S
SISSETON         N/A     47  33  58 SE8       30.06R
ABERDEEN       CLOUDY    51  37  58 NE10      30.05F
MITCHELL       CLOUDY    43  38  82 N12       30.05R
PIERRE         CLOUDY    47  36  65 N9        30.05S
MOBRIDGE       CLOUDY    54  35  48 E8        30.03F
RAPID CITY     CLOUDY    41  34  76 N12       30.05S
$$

  *****  SOME WEATHER IN NEARBY STATES *****

CITY           SKY/WX    TMP DP  RH WIND       PRES   REMARKS
GLASGOW MT     MOSUNNY   54  26  34 E17       30.12S
GREAT FALLS MT LGT RAIN  42  35  76 NE16      30.09S
CHEYENNE WY    CLOUDY    35  31  85 SE9       29.98R
SCOTTSBLUFF NE CLOUDY    44  28  53 VRB3      30.01R
OMAHA NE       CLOUDY    50  43  77 NW10      29.98R
DES MOINES IA  CLOUDY    58  48  69 W17       29.90R
DAVENPORT IA   CLOUDY    52  48  86 CALM      29.90S FOG
CHICAGO IL     CLOUDY    46  40  79 NE8       29.93R
EAU CLAIRE WI  LGT RAIN  43  36  76 E9        30.02S
LA CROSSE WI   CLOUDY    42  39  89 E8        29.98F FOG
$$

  *****  SOME NATIONAL WEATHER *****

CITY           SKY/WX    TMP DP  RH WIND       PRES   REMARKS
LA GUARDIA NY  CLOUDY    55  31  39 S12       30.02F
RALEIGH NC     CLOUDY    79  64  61 CALM      29.82F THUNDER
ATLANTA GA     MOSUNNY   83  59  44 SW8       29.93F
NEW ORLEANS LA CLOUDY    78  71  79 SE10      29.90F
OKLAHOMA CITY  MOSUNNY   74  50  42 SE10G21   29.89F
ALBUQUERQUE NM MOSUNNY   73  12   9 S21G35    29.72F
SALT LAKE CITY PTSUNNY   56  34  43 VRB5      29.74R
LOS ANGELES CA FAIR      65  46  50 W12       29.86F
BOISE ID       PTSUNNY   68  35  29 NW21G35   29.79F
SEATTLE WA     PTSUNNY   59  43  55 VRB6      30.10F
$$

*** WEATHER ACROSS MANITOBA...SASKATCHEWAN AND ONTARIO ***
                ***ONTARIO***

CITY           SKY/WX    TMP DP  RH WIND       PRES   REMARKS
GERALDTON      MOSUNNY   48  28  46 NE10      30.15S
THUNDER BAY    PTSUNNY   46  27  46 E12       30.14F
SIOUX LOOKOUT  PTSUNNY   48  28  46 VRB8      30.16F
TORONTO        CLOUDY    46  21  36 E10G18    30.03S
BIG TROUT LK   LGT RAIN  36  27  69 N8        30.30S
PICKLE LAKE    PTSUNNY   46  27  46 NE7       30.20F
DRYDEN         SUNNY     50  28  43 NE10G17   30.15F
KENORA         PTSUNNY   54  19  26 NE12G17   30.16S
$$
                *** MANITOBA***

CITY           SKY/WX    TMP DP  RH WIND       PRES   REMARKS
BRANDON        PTSUNNY   57  10  15 E21G28    30.21S
DAUPHIN        SUNNY     55  16  21 E15G21    30.25F
ISLAND LAKE    SUNNY     46  14  27 N9        30.33F
PILOT MOUND      N/A     55  12  18 NE17G28     N/A
THE PAS        MOSUNNY   55  19  24 SE7       30.32F
THOMPSON       MOSUNNY   54  18  24 VRB2      30.34F
WINNIPEG       PTSUNNY   55  14  19 NE18G25   30.20S
LYNN LAKE      PTSUNNY   59  23  25 S14       30.24F
CHURCHILL      PTSUNNY   28  25  86 NE6       30.48F WCI  22
GILLAM         SUNNY     46  14  27 NE6       30.40S
$$
                ***SASKATCHEWAN***

CITY           SKY/WX    TMP DP  RH WIND       PRES   REMARKS
ESTEVAN        CLOUDY    59  16  18 E14G21    30.16S
KINDERSLEY     PTSUNNY   59  21  23 E8G23     30.16F
LLOYDMINSTER   PTSUNNY   61  19  20 S17       30.16F
PRINCE ALBERT  PTSUNNY   63  25  23 SE12G17   30.23F
REGINA         PTSUNNY   59  18  20 E16G22    30.18F
YORKTON        SUNNY     59  19  21 NE7G17    30.21F
N. BATTLEFORD  MOSUNNY   63  18  17 SE14      30.21F   C1F1C2F2C3F3C4F4C5F5C6F6C7F7C8F8C9F9CaFaCbFbCcFcCdFdCe!



USA.gov is the U.S. government's official web portal to all federal, state and local government web resources and services.